Wetbulb
70.74 71.92 72.44 72.64 72.36 72.43 72.28 72.43 72.45 72.85 73.06 73.02 73.08 73.18 73.04 73.01 73.04 72.82 73.04 72.74 72.45 72.74 72.99 73.04 72.92 73.07 72.47 72.32 72.10 71.89 71.96 71.71 71.99 72.14 71.93 70.98 70.91 70.65 70.11 69.81 70.49 69.76 71.22
71.79 71.61 71.72 72.31 72.36 72.64 72.64 72.74 72.82 72.81 72.94 72.55 73.00 73.08 72.85 72.94 72.50 72.24 72.53 72.44 71.03 72.03 72.59 72.60 72.22 72.20 72.05 71.94 71.76 71.54 71.53 71.23 71.15 71.33 71.35 70.72 70.25 70.11 70.18 69.85 70.20 69.85 70.82
71.06 71.37 71.48 71.70 72.49 72.85 72.83 72.73 72.95 72.45 72.38 72.62 72.73 72.83 72.81 72.91 72.74 72.66 72.06 72.43 72.23 72.22 72.20 72.22 72.05 71.78 71.68 71.50 71.11 71.09 70.77 70.66 70.48 70.57 70.16 67.48 67.96 69.99 69.89 69.55 69.79 69.76 69.98
70.86 71.03 70.87 71.34 71.88 72.47 72.36 72.35 72.38 71.78 72.05 72.48 72.58 72.63 72.61 72.59 72.60 72.44 71.93 71.18 72.16 71.88 71.80 71.63 71.66 71.28 70.92 70.89 70.54 70.05 70.02 69.47 69.34 69.01 66.60 66.82 68.16 69.69 69.59 69.23 68.52 68.32 68.64
70.43 70.49 70.46 70.67 71.14 71.52 71.68 71.58 71.60 71.47 71.75 71.95 72.12 72.36 72.11 72.05 72.17 71.93 71.14 70.78 71.72 71.60 71.39 70.99 70.67 69.99 69.50 68.78 68.62 68.53 69.16 69.10 68.51 67.07 65.58 67.03 67.58 69.64 69.96 69.53 68.89 68.69 68.13
69.83 70.05 69.59 69.88 70.58 71.16 71.25 71.00 71.01 71.01 70.88 71.17 71.33 71.63 71.77 71.71 71.45 71.25 70.63 71.25 71.22 70.98 70.73 70.22 69.62 69.05 68.45 67.97 67.90 67.99 68.94 68.49 66.95 64.80 67.09 68.18 67.08 69.72 70.31 69.37 68.99 69.19 69.30
69.13 69.53 69.48 69.18 69.91 70.61 70.41 70.21 70.48 70.56 70.51 70.66 70.72 70.76 71.17 71.24 70.66 70.38 70.64 70.79 70.56 70.13 69.86 69.39 69.09 68.65 68.10 67.74 67.64 67.77 67.58 67.32 65.34 64.58 65.04 66.28 67.29 69.34 69.19 68.88 68.70 68.51 68.61
64.98 66.48 67.43 69.24 69.21 69.15 69.43 69.19 69.19 69.53 70.00 70.02 70.09 70.17 70.52 70.39 69.87 69.56 69.69 70.07 69.74 69.49 69.30 68.82 68.32 67.94 67.67 67.60 67.13 66.75 66.82 66.99 65.43 64.20 65.64 65.99 68.93 68.42 68.40 68.52 68.34 68.08 67.80
61.45 62.69 64.11 65.61 67.36 67.49 67.94 67.99 68.01 68.45 69.04 69.17 69.32 69.41 69.30 69.27 68.86 68.40 68.45 69.44 69.32 68.86 68.46 68.16 67.57 67.31 67.19 66.85 66.52 65.78 65.77 66.29 63.04 63.17 64.62 65.72 69.08 67.62 68.30 66.85 68.12 67.58 66.97
57.81 59.33 60.39 61.82 64.72 65.64 65.84 67.87 67.67 67.81 67.78 68.48 68.81 68.61 68.28 68.48 68.51 67.86 67.56 68.45 69.06 68.77 68.37 67.93 67.41 66.96 66.87 66.24 65.95 65.29 65.13 65.73 63.33 62.93 62.67 64.27 69.15 68.66 68.60 67.76 67.38 67.20 66.59
57.40 56.88 58.59 59.20 60.48 64.17 63.91 65.85 66.98 67.29 67.67 67.16 67.36 68.03 64.78 66.33 65.90 66.40 66.18 67.71 68.36 68.30 68.05 67.71 67.26 66.52 65.96 65.56 65.20 65.20 64.58 63.32 63.59 63.37 62.70 65.76 69.33 68.93 68.39 66.77 66.03 66.51 65.91
54.49 55.44 55.45 57.39 58.63 60.52 63.76 63.67 64.49 66.35 66.39 65.34 65.03 63.97 65.22 65.36 65.34 67.28 66.96 66.72 67.82 67.90 67.56 67.27 66.89 66.20 65.58 62.92 61.88 62.42 60.13 61.15 63.70 63.41 63.01 65.57 68.34 69.15 68.53 67.67 66.90 66.08 65.53
53.44 53.36 53.99 55.04 56.52 58.35 58.79 61.94 64.46 66.18 66.31 68.09 65.93 65.03 63.27 64.23 64.68 65.28 64.42 64.13 63.65 66.40 64.68 65.19 64.03 63.39 62.61 62.53 61.81 61.08 60.21 61.06 62.39 63.46 63.98 65.37 67.43 69.11 68.32 67.72 66.97 65.92 65.37
51.08 51.99 52.46 53.47 53.80 54.88 56.73 58.06 62.23 65.00 64.56 64.71 64.11 64.23 64.54 62.63 62.01 62.26 63.25 63.15 62.70 62.84 63.18 62.90 62.82 62.89 62.27 62.63 62.51 62.23 61.72 60.65 62.72 62.98 63.02 64.62 66.11 68.94 68.23 68.15 67.22 66.21 65.48
48.85 49.78 49.89 50.88 51.20 52.34 54.00 56.03 58.01 62.22 62.23 62.38 61.97 63.08 63.52 64.36 64.24 66.47 62.79 62.30 62.12 61.83 62.25 62.11 62.12 61.95 61.83 61.38 61.35 62.62 62.93 62.06 63.26 63.06 62.78 64.14 64.51 67.57 69.18 68.49 67.61 66.64 65.81
48.08 48.57 48.91 49.38 49.98 50.98 51.70 52.80 54.71 58.42 59.86 60.31 60.55 61.15 62.01 62.55 62.58 63.12 66.29 63.07 62.74 62.32 61.69 62.04 62.13 62.27 61.86 62.23 62.31 62.62 63.33 63.12 63.08 63.04 63.11 63.42 63.40 65.20 67.97 69.05 68.26 67.55 66.50
45.89 46.76 46.70 48.26 47.97 48.27 49.53 50.97 52.13 54.65 57.85 57.75 58.14 59.03 60.57 61.11 61.37 63.06 64.28 66.51 65.36 64.74 61.16 61.39 62.12 62.18 62.07 63.50 63.06 64.21 65.02 63.94 63.35 63.00 63.08 63.21 63.62 62.71 64.93 67.16 68.13 68.02 67.14
45.18 45.85 46.65 48.32 46.76 46.78 47.35 48.93 50.90 51.79 53.71 54.99 56.68 56.27 56.68 59.82 59.24 61.00 60.46 62.00 65.09 65.36 64.59 61.58 61.06 61.65 62.51 63.92 64.03 64.40 65.36 65.38 63.42 63.08 62.93 63.32 63.52 64.27 63.25 64.26 66.07 67.13 67.29
44.79 44.93 45.36 45.55 45.40 45.72 45.99 47.66 48.88 49.47 50.58 51.80 53.33 54.38 54.85 55.53 58.77 57.72 57.69 58.46 60.35 64.50 64.36 63.60 62.60 62.15 61.21 61.64 62.54 63.49 63.58 64.72 65.91 63.88 62.26 62.56 63.00 63.81 63.90 63.49 63.48 64.46 65.78
44.14 44.74 44.97 45.72 45.32 45.43 45.43 45.57 46.42 47.94 48.91 50.05 50.49 51.93 52.62 53.32 54.71 54.26 55.23 55.42 57.83 59.65 61.46 63.65 62.68 62.16 61.98 61.61 62.49 62.30 61.11 61.74 62.45 62.83 62.67 62.83 62.45 62.97 63.54 63.64 63.56 63.60 62.91
43.84 44.28 44.09 44.48 44.27 45.15 45.09 43.28 44.01 44.48 46.03 48.14 49.29 50.17 50.95 51.55 52.41 51.72 52.94 52.95 54.93 57.13 57.62 59.33 61.31 61.64 61.58 62.17 60.65 60.01 59.90 59.79 59.54 60.34 62.79 62.67 62.19 62.38 62.82 63.26 63.30 63.77 63.37
42.51 42.79 42.80 43.40 43.73 43.87 43.58 43.32 42.98 43.10 44.75 45.78 47.11 48.03 49.77 50.20 50.89 50.90 51.33 50.64 51.39 54.22 55.50 56.57 57.13 57.14 61.30 62.28 60.60 58.55 56.23 57.84 58.53 58.71 59.58 62.18 62.27 63.05 62.45 62.49 62.95 62.97 63.24
41.94 42.21 42.84 42.98 43.48 44.06 44.02 43.15 43.10 43.38 43.62 44.12 45.18 46.70 47.47 49.33 49.48 49.97 50.19 49.90 49.92 51.43 53.07 55.42 54.34 55.07 54.82 58.50 60.76 59.60 56.30 54.42 55.78 58.35 58.20 59.47 60.75 61.74 62.69 62.36 62.23 62.63 63.01
41.16 41.66 42.54 43.80 43.77 44.38 43.68 42.47 41.77 41.03 40.46 42.41 43.40 45.05 46.59 47.73 48.09 48.90 49.15 49.40 49.02 50.64 52.29 52.31 53.16 53.11 51.57 50.60 54.02 60.34 60.69 59.92 55.86 54.97 57.01 57.68 58.61 60.24 61.05 61.62 62.00 62.51 62.83
40.74 40.84 41.41 43.18 43.64 43.35 43.25 42.38 41.37 40.94 41.54 42.64 42.89 43.60 44.65 46.04 46.78 47.73 47.87 48.36 47.87 49.56 49.48 50.25 50.12 49.85 51.06 50.48 50.63 51.48 53.76 59.90 60.22 57.84 55.42 57.12 57.99 58.98 59.62 61.28 62.22 62.86 63.50
41.14 40.65 41.12 42.56 43.00 42.86 42.58 42.07 41.56 40.83 41.02 41.14 41.84 42.44 43.36 44.71 45.46 46.34 46.54 47.43 47.11 48.02 47.74 47.14 48.39 47.48 45.72 47.46 50.30 51.04 51.70 51.54 55.16 57.64 56.86 56.38 56.51 57.85 58.42 59.54 60.40 62.49 63.83
MSLP
1020.60 1020.67 1020.56 1020.61 1020.46 1020.23 1020.15 1020.16 1020.05 1019.95 1019.91 1019.82 1019.77 1019.68 1019.52 1019.43 1019.48 1019.48 1019.36 1019.33 1019.35 1019.33 1019.34 1019.30 1019.33 1019.35 1019.41 1019.56 1019.68 1019.68 1019.69 1019.71 1019.66 1019.67 1019.60 1019.64 1019.69 1019.81 1019.94 1020.01 1019.96 1019.94 1019.89
1020.79 1021.02 1020.85 1020.95 1020.83 1020.69 1020.58 1020.65 1020.56 1020.42 1020.31 1020.22 1020.16 1020.09 1019.97 1019.88 1019.93 1019.92 1019.77 1019.84 1019.83 1019.82 1019.86 1019.87 1019.87 1019.95 1020.05 1020.14 1020.25 1020.34 1020.37 1020.33 1020.35 1020.31 1020.25 1020.21 1020.22 1020.29 1020.31 1020.35 1020.33 1020.27 1020.21
1021.06 1021.33 1021.26 1021.36 1021.22 1021.09 1020.95 1021.00 1020.93 1020.86 1020.71 1020.64 1020.61 1020.54 1020.41 1020.28 1020.24 1020.23 1020.21 1020.27 1020.34 1020.33 1020.37 1020.39 1020.43 1020.54 1020.60 1020.65 1020.69 1020.81 1020.88 1020.90 1020.83 1020.83 1020.83 1020.87 1020.84 1020.83 1020.83 1020.79 1020.78 1020.68 1020.62
1021.39 1021.80 1021.76 1021.71 1021.66 1021.52 1021.46 1021.36 1021.34 1021.29 1021.16 1021.09 1021.02 1020.92 1020.79 1020.61 1020.50 1020.49 1020.52 1020.64 1020.79 1020.84 1020.85 1020.91 1020.98 1021.05 1021.16 1021.19 1021.20 1021.20 1021.22 1021.21 1021.19 1021.19 1021.20 1021.18 1021.20 1021.27 1021.27 1021.28 1021.25 1021.15 1021.06
1021.91 1022.30 1022.32 1022.13 1022.00 1021.94 1021.92 1021.81 1021.76 1021.72 1021.59 1021.49 1021.38 1021.31 1021.15 1020.93 1020.76 1020.73 1020.80 1020.95 1021.19 1021.32 1021.34 1021.43 1021.50 1021.57 1021.62 1021.65 1021.59 1021.51 1021.35 1021.45 1021.53 1021.59 1021.63 1021.60 1021.56 1021.56 1021.61 1021.70 1021.73 1021.61 1021.51
1022.51 1022.74 1022.88 1022.66 1022.47 1022.35 1022.28 1022.10 1022.05 1022.05 1021.91 1021.82 1021.77 1021.62 1021.49 1021.29 1021.03 1021.03 1021.05 1021.24 1021.51 1021.65 1021.72 1021.77 1021.86 1021.95 1022.02 1022.02 1021.81 1021.65 1021.54 1021.68 1021.84 1022.00 1021.97 1021.93 1021.95 1021.89 1021.92 1022.09 1022.11 1022.01 1022.01
1023.16 1023.27 1023.28 1023.14 1022.84 1022.75 1022.69 1022.63 1022.48 1022.41 1022.31 1022.12 1022.06 1022.04 1021.88 1021.80 1021.66 1021.49 1021.44 1021.51 1021.62 1021.78 1021.88 1021.98 1022.07 1022.15 1022.13 1022.12 1021.84 1021.61 1021.88 1021.94 1022.07 1022.25 1022.34 1022.34 1022.30 1022.30 1022.44 1022.55 1022.54 1022.51 1022.45
1023.75 1023.89 1023.78 1023.57 1023.35 1023.19 1023.06 1022.99 1022.87 1022.75 1022.70 1022.58 1022.42 1022.34 1022.32 1022.26 1022.19 1022.15 1021.97 1021.75 1021.75 1021.81 1021.93 1022.11 1022.19 1022.28 1022.29 1022.35 1022.29 1022.24 1022.26 1022.30 1022.44 1022.54 1022.59 1022.58 1022.50 1022.56 1022.68 1022.85 1022.90 1022.96 1022.96
1024.33 1024.31 1024.10 1024.02 1023.83 1023.59 1023.44 1023.35 1023.25 1023.02 1022.93 1022.83 1022.80 1022.68 1022.60 1022.59 1022.58 1022.44 1022.44 1022.23 1021.97 1021.87 1021.87 1021.94 1022.07 1022.26 1022.37 1022.55 1022.67 1022.70 1022.72 1022.78 1022.88 1022.94 1022.90 1022.89 1022.76 1022.84 1022.91 1022.94 1023.10 1023.25 1023.38
1024.94 1024.95 1024.81 1024.39 1024.22 1024.03 1023.79 1023.57 1023.50 1023.30 1023.18 1023.09 1023.07 1023.01 1022.90 1022.83 1022.80 1022.74 1022.49 1022.37 1022.32 1022.15 1022.02 1021.96 1021.97 1022.07 1022.29 1022.48 1022.68 1022.81 1022.76 1022.81 1022.96 1023.06 1023.07 1023.09 1022.99 1023.00 1023.15 1023.30 1023.38 1023.48 1023.60
1025.80 1025.79 1025.59 1025.16 1024.73 1024.45 1024.07 1023.85 1023.63 1023.45 1023.36 1023.37 1023.28 1023.23 1023.21 1023.05 1022.89 1022.81 1022.75 1022.54 1022.30 1022.25 1022.25 1022.17 1022.17 1022.27 1022.30 1022.38 1022.56 1022.67 1022.66 1022.77 1022.90 1023.01 1023.11 1023.05 1023.09 1023.08 1023.25 1023.51 1023.70 1023.80 1023.89
1026.87 1026.80 1026.35 1025.99 1025.63 1025.17 1024.62 1024.28 1024.00 1023.65 1023.50 1023.44 1023.45 1023.47 1023.44 1023.28 1023.02 1022.74 1022.69 1022.77 1022.64 1022.46 1022.26 1022.18 1022.21 1022.30 1022.41 1022.53 1022.66 1022.71 1022.75 1022.69 1022.75 1022.90 1023.05 1023.02 1023.06 1023.08 1023.26 1023.51 1023.77 1023.96 1024.09
1027.95 1027.44 1026.93 1026.71 1026.28 1025.94 1025.35 1025.04 1024.59 1024.09 1023.89 1023.54 1023.63 1023.47 1023.32 1023.36 1023.41 1023.31 1023.07 1022.67 1022.76 1022.64 1022.66 1022.43 1022.24 1022.23 1022.26 1022.34 1022.46 1022.63 1022.57 1022.60 1022.66 1022.63 1022.70 1022.82 1023.03 1023.04 1023.22 1023.46 1023.68 1023.89 1024.14
1028.51 1028.35 1027.95 1027.52 1027.10 1026.63 1026.20 1025.88 1025.35 1024.96 1024.61 1024.34 1024.15 1023.87 1023.54 1023.49 1023.36 1023.22 1023.11 1023.15 1022.88 1022.67 1022.56 1022.58 1022.59 1022.32 1022.18 1022.18 1022.19 1022.39 1022.40 1022.40 1022.53 1022.60 1022.64 1022.72 1022.81 1022.93 1023.08 1023.32 1023.56 1023.77 1024.01
1028.98 1028.91 1028.63 1028.23 1027.89 1027.50 1026.99 1026.66 1026.22 1025.75 1025.45 1025.31 1024.97 1024.58 1024.25 1023.84 1023.59 1023.18 1023.07 1023.02 1023.03 1023.05 1022.81 1022.46 1022.44 1022.50 1022.25 1021.99 1021.92 1021.96 1022.06 1022.07 1022.16 1022.45 1022.48 1022.53 1022.72 1022.77 1022.80 1023.06 1023.36 1023.60 1023.82
1029.89 1029.65 1029.17 1028.81 1028.55 1028.05 1027.82 1027.52 1027.25 1026.71 1026.33 1026.03 1025.61 1025.25 1024.80 1024.49 1024.08 1023.66 1023.14 1022.97 1022.85 1022.79 1022.73 1022.78 1022.55 1022.28 1022.23 1022.14 1021.87 1021.63 1021.58 1021.69 1021.87 1022.05 1022.22 1022.24 1022.43 1022.65 1022.77 1022.77 1022.95 1023.30 1023.52
1030.51 1030.30 1029.89 1029.37 1029.20 1028.86 1028.56 1028.23 1027.82 1027.60 1027.06 1026.82 1026.46 1025.91 1025.47 1024.92 1024.55 1023.81 1023.62 1023.06 1023.04 1022.62 1022.33 1022.22 1022.20 1022.32 1022.30 1021.93 1021.65 1021.19 1021.10 1021.22 1021.51 1021.77 1021.97 1022.10 1022.15 1022.39 1022.56 1022.76 1022.84 1022.92 1023.19
1031.30 1031.01 1030.63 1029.97 1029.82 1029.41 1029.14 1028.80 1028.43 1028.07 1027.74 1027.43 1027.01 1026.69 1026.27 1025.72 1025.19 1024.46 1024.44 1023.78 1023.33 1022.99 1022.48 1021.81 1021.80 1021.88 1021.89 1021.73 1021.38 1020.94 1020.58 1020.68 1020.79 1021.13 1021.32 1021.68 1021.90 1021.94 1022.14 1022.25 1022.51 1022.79 1022.89
1031.91 1031.62 1031.21 1030.82 1030.31 1029.95 1029.63 1029.26 1029.03 1028.69 1028.34 1028.13 1027.69 1027.36 1027.01 1026.51 1025.95 1025.64 1025.18 1024.53 1023.98 1023.02 1022.93 1022.48 1021.72 1022.22 1022.24 1021.53 1021.10 1020.68 1020.37 1020.35 1020.35 1020.49 1020.96 1021.11 1021.29 1021.58 1021.57 1021.69 1021.91 1022.24 1022.60
1032.16 1031.80 1031.52 1031.04 1030.68 1030.27 1030.00 1029.70 1029.41 1029.13 1028.87 1028.65 1028.40 1028.01 1027.60 1027.20 1026.66 1026.25 1025.76 1025.29 1024.61 1023.89 1023.41 1022.53 1022.40 1022.25 1022.52 1022.07 1021.81 1020.92 1020.28 1020.07 1020.25 1020.09 1019.98 1020.39 1020.66 1020.94 1021.27 1021.28 1021.42 1021.89 1022.03
1032.18 1032.14 1031.86 1031.49 1031.19 1030.54 1030.25 1030.14 1029.92 1029.89 1029.76 1029.16 1028.78 1028.51 1028.16 1027.80 1027.38 1026.94 1026.44 1025.95 1025.34 1024.61 1024.12 1023.52 1022.63 1021.81 1021.81 1021.99 1022.12 1021.08 1020.19 1019.67 1019.56 1019.94 1019.58 1019.46 1019.77 1020.13 1020.38 1020.71 1020.98 1021.03 1021.49
1032.63 1032.55 1032.29 1031.94 1031.62 1031.30 1031.00 1030.82 1030.69 1030.46 1030.18 1029.77 1029.39 1028.93 1028.58 1028.27 1027.95 1027.50 1027.14 1026.61 1026.14 1025.41 1024.73 1024.09 1023.70 1023.12 1022.49 1022.52 1022.18 1022.01 1021.16 1019.95 1019.41 1019.11 1019.42 1019.21 1018.87 1018.96 1019.45 1019.75 1020.01 1020.36 1020.61
1032.69 1032.56 1032.33 1032.13 1031.93 1031.68 1031.37 1031.17 1030.98 1030.62 1030.28 1030.17 1029.92 1029.50 1029.11 1028.70 1028.36 1028.01 1027.65 1027.22 1026.71 1026.20 1025.69 1025.12 1024.76 1024.34 1023.96 1023.31 1022.74 1022.02 1021.72 1020.73 1019.94 1019.12 1019.08 1019.20 1018.85 1018.57 1018.20 1018.74 1019.14 1019.42 1019.78
1032.80 1032.53 1032.30 1032.14 1032.00 1031.81 1031.58 1031.52 1031.40 1031.44 1031.32 1031.11 1030.84 1030.28 1029.71 1029.19 1028.79 1028.33 1028.00 1027.54 1027.19 1026.77 1026.39 1025.99 1025.54 1025.18 1024.71 1024.28 1023.39 1022.53 1021.79 1021.15 1020.63 1019.87 1019.29 1018.87 1018.75 1018.64 1018.19 1018.18 1018.74 1019.07 1019.29
1032.70 1032.60 1032.41 1032.21 1032.08 1032.06 1031.88 1031.78 1031.72 1031.73 1031.57 1031.25 1030.99 1030.60 1030.21 1029.64 1029.08 1028.69 1028.29 1027.91 1027.60 1027.18 1026.87 1026.53 1026.20 1025.82 1025.50 1025.03 1024.52 1023.78 1022.60 1021.07 1020.60 1020.50 1019.70 1019.00 1018.59 1018.34 1018.14 1017.58 1017.72 1018.26 1018.43
1032.60 1032.51 1032.40 1032.21 1032.07 1031.90 1031.90 1031.86 1031.81 1031.79 1031.75 1031.58 1031.17 1030.86 1030.50 1030.00 1029.38 1028.90 1028.51 1028.17 1027.82 1027.51 1027.20 1026.97 1026.64 1026.38 1026.04 1025.48 1024.96 1024.37 1023.81 1022.91 1021.72 1019.82 1019.67 1019.29 1018.80 1018.22 1017.92 1017.69 1016.98 1017.10 1017.46
Wind_Speed
5 5 8 8 9 11 13 12 13 13 12 12 13 13 13 12 15 13 13 15 14 15 16 17 17 17 18 18 18 17 17 16 16 16 16 17 17 17 16 16 14 11 17
7 5 9 8 9 10 12 11 12 12 12 13 12 12 13 14 13 11 15 14 15 15 15 16 17 17 17 17 16 15 15 15 14 14 15 16 17 17 16 15 13 12 16
9 5 7 9 8 10 11 11 11 11 12 12 11 11 11 12 12 13 15 13 14 14 15 15 16 16 16 14 15 14 13 11 12 12 12 5 7 15 16 15 13 14 14
10 6 6 9 9 9 9 10 10 10 10 10 10 9 10 10 11 12 13 11 14 13 14 14 15 14 13 10 10 10 9 9 9 10 5 5 8 13 14 14 13 14 13
11 7 6 9 9 9 9 9 9 9 9 9 9 8 8 9 10 12 14 13 13 13 13 13 13 12 11 10 10 8 5 10 9 7 5 5 4 9 12 12 11 11 11
11 7 7 9 9 9 8 9 8 8 8 8 7 7 8 9 11 13 13 13 12 12 12 12 11 11 10 9 9 7 10 10 8 5 5 7 6 11 13 13 10 11 11
10 7 6 10 9 9 9 9 8 8 7 7 7 7 8 10 9 10 11 10 10 10 10 10 9 9 10 11 13 9 9 8 5 4 5 5 6 11 10 10 10 10 10
12 9 7 10 10 10 9 9 8 7 7 6 5 6 7 8 8 7 7 8 8 8 8 7 7 8 9 11 13 11 7 6 5 5 5 4 9 9 9 9 9 9 10
15 13 11 10 9 10 10 9 8 7 6 5 4 4 5 5 5 6 5 4 5 6 6 5 5 6 7 9 9 9 7 8 5 3 3 3 8 7 8 7 9 8 8
16 15 14 13 11 6 6 9 9 7 6 4 3 2 2 2 2 2 3 2 1 1 2 2 2 2 4 5 5 6 4 7 4 2 1 2 7 8 7 6 6 6 6
15 15 13 14 13 10 8 8 8 8 8 7 5 5 2 2 2 3 4 2 4 4 3 3 3 4 5 2 2 5 3 3 3 3 2 4 8 8 7 5 4 4 4
15 15 13 12 13 11 9 9 7 7 4 4 4 5 4 5 4 4 4 6 5 5 5 5 5 5 5 3 2 3 2 3 4 4 3 5 5 7 7 7 5 3 4
12 12 15 13 12 11 10 7 5 5 5 5 8 6 4 3 3 4 3 2 3 5 3 4 3 2 3 2 1 1 3 2 3 3 5 8 8 8 7 7 6 5 4
14 12 14 13 12 12 8 8 8 8 7 7 8 9 6 3 4 4 3 4 4 3 4 4 3 4 4 5 5 3 4 3 2 2 4 10 10 9 9 9 8 7 7
15 13 13 13 11 10 11 8 7 8 7 8 8 10 8 6 6 5 3 3 3 4 4 4 4 4 5 5 4 5 4 5 5 3 3 11 10 10 12 11 10 10 9
11 12 10 13 11 11 10 10 8 7 8 7 8 9 10 6 6 5 5 4 3 3 4 4 5 4 5 4 6 5 5 5 5 5 4 5 11 10 11 12 13 12 12
6 6 9 11 10 11 10 8 6 7 6 7 8 10 11 11 9 7 5 4 4 5 5 4 4 3 4 5 7 6 4 6 5 6 5 4 6 11 11 11 12 13 14
6 7 7 8 8 9 9 7 6 7 7 7 7 7 12 12 13 9 8 7 6 4 5 2 2 3 4 5 6 6 4 5 6 8 7 5 5 6 10 13 13 13 14
5 6 8 8 8 8 8 6 6 7 7 6 7 8 10 11 12 9 8 9 11 6 3 4 3 3 5 4 4 5 4 3 7 6 7 8 8 7 6 11 14 14 14
4 5 6 5 7 7 5 5 4 5 7 7 6 8 11 10 11 9 8 10 10 8 8 4 4 2 3 4 7 7 5 5 4 6 8 7 7 9 8 8 7 9 15
7 7 6 7 7 6 6 4 4 5 4 7 7 9 10 9 11 10 8 9 9 9 10 9 7 5 6 4 5 5 4 5 6 5 5 7 9 10 10 9 6 6 7
3 3 5 5 7 5 3 3 2 3 3 3 4 7 8 9 9 10 9 9 10 8 10 11 11 6 3 3 2 1 5 5 2 5 5 6 10 9 10 11 11 10 9
4 3 4 4 6 5 5 3 3 3 2 4 5 6 6 9 9 9 9 8 9 8 8 9 11 12 7 6 8 3 4 3 3 2 3 4 6 7 9 9 11 11 11
1 1 4 5 5 4 5 5 6 4 4 3 3 4 7 7 8 9 8 9 9 6 10 9 8 7 7 8 8 6 10 6 4 7 3 4 3 5 6 5 6 8 9
1 1 2 4 4 3 4 5 4 5 3 3 3 6 6 6 7 7 7 7 7 6 9 10 10 10 7 5 5 7 10 7 6 6 9 4 2 4 4 5 6 6 9
2 1 2 3 2 2 3 4 5 5 3 4 5 5 4 4 4 5 6 6 6 5 7 8 8 9 9 8 6 6 6 5 9 6 8 6 5 4 3 4 5 6 6
Wind_Direction
48 49 60 43 51 65 68 67 65 61 60 63 64 62 64 74 76 73 74 73 76 79 77 81 84 88 88 86 82 83 80 77 82 84 91 93 92 89 86 79 75 78 86
79 52 63 54 58 64 68 65 65 65 63 62 60 62 65 74 74 73 75 74 82 80 79 84 87 88 89 86 77 72 70 72 72 80 87 92 92 92 89 82 79 82 79
85 47 58 56 56 62 69 66 64 66 69 68 65 67 72 77 79 72 73 69 71 74 78 86 88 90 91 82 87 82 74 77 86 87 84 71 85 92 91 85 82 83 87
78 45 52 61 52 57 62 66 61 65 67 71 65 68 75 80 89 84 81 72 66 67 77 83 82 80 73 67 61 54 72 88 82 80 68 63 92 94 94 95 94 93 91
73 38 41 56 56 56 56 59 61 60 54 55 66 65 70 80 98 98 79 65 61 63 75 74 69 63 54 42 31 27 82 114 97 85 77 70 75 97 106 92 89 90 89
63 46 35 38 45 49 54 62 62 57 64 60 56 69 58 56 66 75 83 75 69 66 68 63 61 53 46 35 15 22 117 116 100 76 72 78 74 79 80 87 86 87 91
56 35 28 30 41 46 49 45 47 49 54 66 67 58 71 65 59 68 81 85 81 74 71 62 51 46 35 27 20 108 115 109 108 92 84 89 92 94 95 95 89 82 82
50 32 20 22 29 32 41 43 42 44 41 49 65 67 65 74 71 54 74 96 99 95 85 68 51 47 35 33 30 41 51 96 88 89 93 93 105 108 107 108 99 89 86
44 31 27 21 13 22 27 32 29 35 38 39 49 66 80 83 83 85 55 79 109 115 115 104 75 52 44 44 38 38 50 63 67 71 96 110 117 126 123 117 103 100 94
41 31 18 20 20 12 17 13 10 11 15 19 14 19 69 84 83 29 107 118 123 139 147 136 104 46 54 51 54 53 82 125 121 104 108 164 147 140 130 126 122 116 107
33 29 16 20 16 7 19 11 9 353 358 356 347 325 332 309 292 297 298 233 189 198 243 283 308 327 342 10 76 118 129 179 173 176 184 242 186 156 148 145 150 128 117
33 22 20 14 14 5 7 8 4 9 8 352 327 322 308 292 268 244 256 272 255 241 228 239 274 307 334 326 1 113 173 198 194 185 197 229 229 175 162 162 162 152 138
34 26 21 16 17 7 11 2 11 19 11 20 38 348 282 302 321 318 303 244 262 262 284 278 269 262 269 269 282 318 300 258 218 194 194 201 223 204 186 178 172 175 164
36 27 22 19 17 16 17 14 9 24 23 19 16 19 10 344 317 292 263 284 263 256 246 259 283 270 253 255 259 221 235 257 202 201 204 203 209 220 208 196 188 191 185
35 23 24 21 17 14 24 19 17 29 26 15 12 16 15 12 3 341 315 265 269 294 276 252 248 270 271 258 253 263 232 241 190 202 202 205 213 222 205 207 205 203 198
39 25 19 26 19 19 22 18 14 18 20 23 17 16 14 360 1 1 350 341 288 253 259 276 279 249 254 257 267 237 241 227 206 201 208 205 210 221 214 214 209 210 207
35 20 20 32 21 24 18 12 13 12 15 19 14 10 11 15 0 1 342 359 359 331 287 255 266 272 275 278 264 253 211 200 199 205 205 211 207 218 218 222 217 210 211
53 35 17 26 28 23 15 10 12 11 15 13 9 9 9 10 13 14 358 344 337 334 330 2 322 276 258 263 263 260 222 199 201 203 192 195 206 208 218 217 215 215 213
58 41 29 13 24 25 11 10 8 10 20 7 11 13 9 10 9 8 1 360 344 321 286 321 8 359 316 322 290 268 253 220 207 187 201 200 204 215 210 219 216 208 213
68 51 40 25 18 20 14 9 10 16 15 15 11 14 10 11 10 9 7 0 359 355 340 292 267 258 292 306 311 282 248 228 233 201 196 207 208 210 220 216 207 224 215
38 52 31 35 7 27 28 11 13 17 2 14 13 7 13 8 8 9 7 4 1 1 358 0 332 350 326 352 317 319 295 240 218 227 212 197 203 210 210 212 214 205 216
80 85 57 42 31 24 24 356 10 337 340 344 345 2 9 7 6 11 7 5 359 358 1 357 8 350 324 322 286 299 304 325 293 226 214 219 209 202 213 213 207 209 205
61 45 71 58 48 33 34 28 357 345 349 5 357 3 351 2 3 7 5 4 359 1 2 10 13 8 342 335 317 217 283 248 335 332 267 239 245 214 212 213 213 210 208
143 72 107 77 59 38 28 47 46 31 12 339 330 332 349 352 355 3 359 1 2 4 9 7 5 11 9 355 334 352 267 256 263 300 270 285 253 240 213 193 205 214 207
170 106 156 118 90 64 65 73 63 40 347 321 337 356 341 336 347 356 356 357 1 4 13 4 4 1 5 339 346 345 322 276 224 228 279 279 261 225 225 197 192 210 221
250 236 167 134 119 93 95 83 88 71 18 9 348 347 341 333 331 351 351 355 350 355 17 10 0 359 356 349 341 343 339 326 336 253 237 254 249 264 239 246 202 196 219